Stevenson, Washington, United States (98648)
Lat: 45.70N, Lon: 121.88W
Wx Zone: WAZ023
Local Info
Past Weather Observations for Today

NOTE: This archive is for the closest National Weather Service station to Stevenson. Information may differ from the station used for current weather conditions.

Click here for Long-term Archive

Time Weather Temperature Dewpoint Humidity Pressure Winds Precip Visibility
13:53
Overcast
63°F / 17°C 57°F / 14°C 83% 30.09 in
(1019 mb)
S 8.1 mph
(S 13 kph)
0.02 in
(0.51 mm)
10SM
12:53
Overcast
Light Rain
61°F / 16°C 55°F / 13°C 83% 30.12 in
(1020 mb)
SW 8.1 mph
(SW 13 kph)
0.01 in
(0.25 mm)
10SM
11:53
Overcast
Light Rain
61°F / 16°C 57°F / 14°C 88% 30.09 in
(1019 mb)
SW 12.7 mph
(SW 20 kph)
0.03 in
(0.76 mm)
4SM
10:53
Overcast
Light Rain
61°F / 16°C 57°F / 14°C 88% 30.06 in
(1018 mb)
SSE 10.4 mph
(SSE 17 kph)
0.07 in
(1.78 mm)
2SM
10:37
Overcast
Rain
61°F / 16°C 57°F / 14°C 88% 30.06 in
(1018 mb)
S 5.8 mph
(S 9 kph)
0.05 in
(1.27 mm)
2SM
10:35
Overcast
Rain
61°F / 16°C 57°F / 14°C 88% 30.06 in
(1018 mb)
S 5.8 mph
(S 9 kph)
0.04 in
(1.02 mm)
1 3/4SM
09:53
Overcast
Light Rain
61°F / 16°C 55°F / 13°C 83% 30.06 in
(1018 mb)
Variable 4.6 mph
(Variable 7 kph)
0.09 in
(2.29 mm)
6SM
08:53
Overcast
Rain
61°F / 16°C 55°F / 13°C 83% 30.06 in
(1018 mb)
SSE 4.6 mph
(SSE 7 kph)
0.06 in
(1.52 mm)
4SM
07:53
Overcast
Light Rain
63°F / 17°C 54°F / 12°C 73% 30.04 in
(1017 mb)
SW 8.1 mph
(SW 13 kph)
0.00 in
(0.00 mm)
9SM
06:53
Overcast
63°F / 17°C 52°F / 11°C 68% 30.04 in
(1017 mb)
Variable 3.5 mph
(Variable 6 kph)
- 10SM
05:53
Overcast
63°F / 17°C 52°F / 11°C 68% 30.01 in
(1016 mb)
SE 5.8 mph
(SE 9 kph)
- 10SM
05:33
Overcast
63°F / 17°C 52°F / 11°C 68% 30.01 in
(1016 mb)
SE 3.5 mph
(SE 6 kph)
- 10SM
05:10
Overcast
63°F / 17°C 52°F / 11°C 68% 30.04 in
(1017 mb)
SSE 4.6 mph
(SSE 7 kph)
- 10SM
04:53
Overcast
63°F / 17°C 52°F / 11°C 68% 30.01 in
(1016 mb)
Calm - 10SM
03:53
Mostly Cloudy
63°F / 17°C 54°F / 12°C 73% 30.01 in
(1016 mb)
Calm - 10SM
02:53
Overcast
64°F / 18°C 61°F / 16°C 88% 30.01 in
(1016 mb)
Variable 4.6 mph
(Variable 7 kph)
- 10SM
02:36
Overcast
64°F / 18°C 61°F / 16°C 88% 29.98 in
(1015 mb)
Calm - 10SM
02:09
Overcast
64°F / 18°C 61°F / 16°C 88% 30.01 in
(1016 mb)
Calm - 10SM
01:53
Overcast
63°F / 17°C 61°F / 16°C 94% 29.98 in
(1015 mb)
ESE 4.6 mph
(ESE 7 kph)
- 10SM
00:53
Overcast
64°F / 18°C 61°F / 16°C 88% 29.98 in
(1015 mb)
Calm - 10SM
Time Weather Temperature Dewpoint Humidity Pressure Winds Precip Visibility


Weather for websites

WeatherForYou.com, LLC is not responsible for any damages or problems caused by this service. Current weather conditions are obtained from the closest station including government and personal stations which may have varying degrees of accuracy. Weather forecasts are derived from the NOAA NDFD. Like all things, this site belongs to Jesus Christ... He just trusts me to maintain it. If you have any questions or comments email webmaster@weatherforyou.com

Copyright © 2014, WeatherForYou.com LLC. All rights reserved.